Regional Weather Roundup
Issued by NWS Albany, NY

Home | Current Version | Previous Version | Graphics & Text | Print | Product List | Glossary Off
Versions: 1 2 3 4 5 6 7 8 9 10 11 12 13 14 15 16 17 18 19 20 21 22 23 24 25 26 27 28 29 30 31 32 33 34 35 36 37 38 39 40 41 42 43 44 45 46 47 48 49 50

848
ASUS41 KALY 061310
RWRALY

NEW YORK STATE HOURLY WEATHER ROUNDUP
NATIONAL WEATHER SERVICE ALBANY NY
800 AM EST TUE DEC 06 2016

NOTE: "FAIR" INDICATES FEW OR NO CLOUDS BELOW 12,000 FEET WITH NO
SIGNIFICANT WEATHER AND/OR NO OBSTRUCTIONS TO VISIBILITY.

NYZ032-033-038>043-046>054-057>066-NYZ062>081-082-084-061400-
EAST


CITY           SKY/WX    TMP DP  RH WIND       PRES   REMARKS
ALBANY         PTCLDY    30  28  92 CALM      30.13R
GLENS FALLS    FOG       28  24  85 CALM      30.13R VSB<1/4
POUGHKEEPSIE   CLEAR     25  22  88 CALM      30.12F
NEWBURGH       CLEAR     27  27 100 CALM      30.12F
MONTGOMERY     CLEAR     26  23  88 CALM      30.12S
WHITE PLAINS   CLEAR     33  29  85 CALM      30.11S
ISLIP          PTCLDY    32  29  88 CALM      30.13R
NEW YORK CITY  MOCLDY    42  29  59 NE3       30.13F
CENTRAL PARK   PTCLDY    39  28  64 CALM      30.15F
$$

NYZ005>009-017-018-044>046-055-056-061400-
CENTRAL


CITY           SKY/WX    TMP DP  RH WIND       PRES   REMARKS
FULTON         CLEAR     30  28  92 S3        30.10S FOG
SYRACUSE       CLOUDY    28  27  96 CALM      30.11S
ROME           MOCLDY    29  29 100 CALM      30.13S FOG
ELMIRA         CLOUDY    23  19  85 NE5       30.09F WCI  17
BINGHAMTON     CLEAR     28  25  88 CALM      30.08R
MONTICELLO     CLOUDY    23  23 100 CALM      30.10S
$$

NYZ026>034-041>043-087-061400-
NORTH


CITY           SKY/WX    TMP DP  RH WIND       PRES   REMARKS
WATERTOWN      CLEAR     25  23  92 NE6       30.11S FOG     WCI  18
FORT DRUM      NOT AVBL
OGDENSBURG     CLOUDY    31  31  99 CALM      30.13S
MASSENA        CLOUDY    32  29  88 SE3       30.15S FOG
SARANAC LAKE   PTCLDY    24  23  96 CALM      30.05S FOG
PLATTSBURGH    CLOUDY    27  25  92 CALM      30.15R FOG
$$

NYZ001>004-010>016-019>021-085-061400-
WEST


CITY           SKY/WX    TMP DP  RH WIND       PRES   REMARKS
NIAGARA FALLS  CLOUDY    28  23  81 E6        30.04F WCI  22
BUFFALO        MOCLDY    31  25  78 E8        30.04F WCI  23
DUNKIRK        CLOUDY    32  28  85 NE9       29.99F WCI  24
JAMESTOWN      CLOUDY    32  25  74 SE9       29.95F WCI  24
WELLSVILLE     CLOUDY    30  26  85 SE7       30.01F WCI  23
ROCHESTER      CLOUDY    28  25  88 CALM      30.08F
PENN YAN       PTCLDY    30  27  88 SW5       30.08F WCI  25
$$

             KEY
       WCI = WIND CHILL INDEX
       VSB = VISIBILITY
       HX  = HEAT INDEX
$$




USA.gov is the U.S. government's official web portal to all federal, state and local government web resources and services.